Terminal Aerodrome Forecast
Issued by NWS

Current Version | Previous Version | Graphics & Text | Print | Product List | Glossary On
Versions: 1 2 3 4 5 6 7 8 9 10 11 12 13 14 15 16 17 18
000
FTUS41 KPBZ 282100 AAB
TAFMGW
TAF AMD
KMGW 282150Z 2822/2918 33008KT 2SM -DZ BR OVC005
      TEMPO 2822/2824 5SM -DZ BR BKN012
     FM290000 30004KT P6SM OVC020
     FM290600 32004KT 6SM BR BKN025
     FM291500 35004KT P6SM OVC100
     FM291700 34005KT P6SM BKN250=

USA.gov is the U.S. government's official web portal to all federal, state and local government web resources and services.